Total_Precipitation_Accumulation
0.01 0.01 0.10 0.06 0.07 0.05 0.09 0.09 0.13 0.24 0.34 0.29 0.57 0.28 0.21 0.13 0.13 0.14 0.10 0.07 0.11 0.04 0.05 0.05 0.03 0.00 0.00 0.00 0.00 0.00 0.00 0.00 0.00 0.00 0.00 0.00 0.00 0.00 0.00 0.00 0.00 0.00 0.00
0.27 0.10 0.16 0.14 0.09 0.04 0.11 0.06 0.09 0.16 0.27 0.26 0.22 0.28 0.25 0.16 0.15 0.17 0.09 0.08 0.19 0.13 0.07 0.09 0.10 0.02 0.03 0.00 0.00 0.00 0.00 0.00 0.00 0.00 0.00 0.00 0.00 0.00 0.00 0.00 0.00 0.00 0.00
0.60 0.61 0.67 0.41 0.22 0.12 0.06 0.08 0.12 0.15 0.11 0.10 0.15 0.29 0.26 0.08 0.15 0.18 0.21 0.19 0.20 0.17 0.15 0.15 0.14 0.07 0.10 0.04 0.06 0.04 0.01 0.00 0.02 0.00 0.00 0.00 0.00 0.00 0.00 0.00 0.00 0.00 0.00
1.03 1.17 0.81 0.54 0.29 0.17 0.17 0.21 0.16 0.16 0.08 0.05 0.04 0.04 0.11 0.11 0.07 0.10 0.11 0.17 0.11 0.16 0.22 0.14 0.15 0.11 0.16 0.16 0.08 0.11 0.04 0.06 0.04 0.02 0.00 0.00 0.00 0.00 0.00 0.00 0.00 0.00 0.00
1.53 1.48 1.33 0.90 0.62 0.45 0.39 0.37 0.37 0.30 0.18 0.13 0.07 0.04 0.05 0.05 0.03 0.04 0.04 0.05 0.08 0.10 0.16 0.15 0.15 0.20 0.15 0.21 0.19 0.23 0.12 0.08 0.05 0.02 0.00 0.00 0.00 0.00 0.00 0.00 0.00 0.00 0.00
1.15 1.23 0.99 0.66 0.62 0.71 0.67 0.63 0.44 0.37 0.39 0.32 0.18 0.29 0.23 0.13 0.16 0.12 0.08 0.07 0.13 0.13 0.11 0.14 0.13 0.14 0.13 0.10 0.05 0.09 0.17 0.18 0.13 0.08 0.00 0.01 0.02 0.03 0.00 0.00 0.00 0.00 0.00
0.38 0.74 0.97 0.95 0.86 0.73 0.68 0.73 0.73 0.76 0.53 0.59 0.57 0.55 0.39 0.40 0.28 0.18 0.18 0.15 0.24 0.24 0.16 0.14 0.13 0.08 0.06 0.02 0.05 0.06 0.08 0.08 0.12 0.10 0.04 0.04 0.05 0.12 0.08 0.04 0.05 0.04 0.01
0.14 0.19 0.44 0.70 1.05 0.98 0.70 0.50 0.57 0.52 0.47 0.45 0.45 0.48 0.55 0.48 0.36 0.40 0.62 0.33 0.25 0.29 0.21 0.14 0.10 0.10 0.12 0.08 0.04 0.01 0.03 0.07 0.10 0.04 0.05 0.05 0.05 0.04 0.02 0.03 0.01 0.01 0.00
0.06 0.08 0.06 0.09 0.25 0.53 0.59 0.49 0.34 0.42 0.42 0.40 0.32 0.40 0.31 0.29 0.31 0.31 0.50 0.64 0.32 0.30 0.34 0.28 0.21 0.14 0.20 0.15 0.05 0.02 0.01 0.02 0.02 0.00 0.00 0.00 0.00 0.00 0.01 0.00 0.01 0.10 0.05
0.02 0.01 0.00 0.00 0.05 0.08 0.10 0.12 0.14 0.17 0.28 0.28 0.18 0.14 0.17 0.21 0.23 0.30 0.35 0.23 0.22 0.24 0.25 0.30 0.29 0.13 0.20 0.16 0.05 0.02 0.01 0.03 0.03 0.01 0.01 0.00 0.00 0.00 0.00 0.00 0.02 0.05 0.04
0.07 0.01 0.00 0.00 0.00 0.00 0.01 0.02 0.02 0.04 0.06 0.11 0.13 0.15 0.14 0.18 0.22 0.39 0.31 0.24 0.18 0.15 0.16 0.16 0.10 0.17 0.22 0.23 0.13 0.03 0.01 0.00 0.00 0.00 0.00 0.00 0.00 0.00 0.00 0.00 0.00 0.01 0.03
0.07 0.03 0.00 0.00 0.00 0.00 0.00 0.00 0.00 0.01 0.01 0.00 0.00 0.03 0.12 0.21 0.25 0.30 0.35 0.29 0.26 0.14 0.06 0.12 0.16 0.20 0.30 0.28 0.23 0.20 0.15 0.04 0.01 0.00 0.00 0.00 0.00 0.00 0.00 0.00 0.00 0.02 0.02
0.03 0.02 0.01 0.00 0.00 0.00 0.00 0.00 0.00 0.00 0.00 0.00 0.00 0.00 0.00 0.03 0.09 0.27 0.38 0.28 0.26 0.19 0.14 0.08 0.12 0.16 0.12 0.08 0.09 0.08 0.07 0.02 0.01 0.00 0.00 0.01 0.01 0.00 0.00 0.01 0.01 0.01 0.00
0.00 0.00 0.00 0.00 0.00 0.00 0.00 0.00 0.00 0.00 0.00 0.00 0.00 0.00 0.00 0.01 0.04 0.09 0.16 0.12 0.20 0.17 0.22 0.14 0.04 0.01 0.01 0.01 0.03 0.02 0.01 0.00 0.00 0.00 0.00 0.00 0.00 0.00 0.01 0.05 0.01 0.05 0.01
0.00 0.00 0.00 0.00 0.00 0.00 0.00 0.00 0.00 0.00 0.00 0.00 0.00 0.00 0.00 0.01 0.03 0.03 0.02 0.06 0.13 0.12 0.12 0.12 0.08 0.03 0.01 0.00 0.00 0.01 0.01 0.01 0.02 0.04 0.03 0.05 0.05 0.02 0.00 0.04 0.01 0.02 0.01
0.00 0.00 0.00 0.00 0.00 0.00 0.00 0.00 0.00 0.00 0.00 0.00 0.00 0.00 0.00 0.00 0.00 0.00 0.00 0.01 0.05 0.07 0.08 0.25 0.44 0.25 0.11 0.11 0.10 0.07 0.07 0.04 0.01 0.05 0.06 0.10 0.09 0.10 0.06 0.07 0.07 0.05 0.03
0.00 0.00 0.00 0.00 0.00 0.00 0.00 0.00 0.00 0.00 0.00 0.00 0.00 0.00 0.00 0.00 0.00 0.00 0.00 0.00 0.00 0.01 0.03 0.07 0.09 0.09 0.10 0.20 0.25 0.23 0.16 0.06 0.11 0.18 0.20 0.20 0.19 0.16 0.16 0.13 0.14 0.14 0.09
0.00 0.00 0.00 0.00 0.00 0.00 0.00 0.00 0.00 0.00 0.00 0.00 0.00 0.00 0.00 0.00 0.00 0.00 0.00 0.00 0.00 0.00 0.00 0.00 0.01 0.00 0.01 0.03 0.13 0.19 0.15 0.13 0.25 0.35 0.41 0.31 0.36 0.40 0.32 0.25 0.24 0.22 0.18
0.00 0.00 0.00 0.00 0.00 0.00 0.00 0.00 0.00 0.00 0.00 0.00 0.00 0.00 0.00 0.00 0.00 0.00 0.00 0.00 0.00 0.00 0.00 0.00 0.00 0.01 0.02 0.06 0.06 0.12 0.21 0.55 0.71 0.97 1.17 1.07 1.07 1.16 1.04 0.91 0.95 1.01 0.73
0.00 0.00 0.00 0.00 0.00 0.00 0.00 0.00 0.00 0.00 0.00 0.00 0.00 0.00 0.00 0.00 0.00 0.00 0.00 0.00 0.00 0.00 0.00 0.00 0.00 0.01 0.04 0.05 0.05 0.11 0.12 0.17 0.21 0.38 0.54 0.40 0.31 0.41 0.40 0.40 0.57 0.77 0.78
0.00 0.00 0.00 0.00 0.00 0.00 0.00 0.00 0.00 0.00 0.00 0.00 0.00 0.00 0.00 0.00 0.00 0.00 0.00 0.00 0.00 0.00 0.00 0.00 0.00 0.01 0.02 0.04 0.08 0.10 0.13 0.18 0.30 0.31 0.34 0.39 0.43 0.44 0.58 0.63 0.65 0.81 0.88
0.00 0.00 0.00 0.00 0.00 0.00 0.00 0.00 0.00 0.00 0.00 0.00 0.00 0.00 0.00 0.00 0.00 0.00 0.00 0.00 0.00 0.00 0.00 0.00 0.00 0.01 0.01 0.02 0.03 0.08 0.12 0.15 0.24 0.37 0.38 0.40 0.39 0.41 0.58 0.60 0.52 0.50 0.58
0.00 0.00 0.00 0.00 0.00 0.00 0.00 0.00 0.00 0.00 0.00 0.00 0.00 0.00 0.01 0.01 0.00 0.00 0.00 0.00 0.00 0.00 0.00 0.00 0.00 0.00 0.00 0.01 0.01 0.02 0.02 0.03 0.06 0.11 0.16 0.24 0.30 0.36 0.40 0.37 0.35 0.31 0.31
0.00 0.00 0.00 0.00 0.00 0.00 0.00 0.00 0.00 0.01 0.01 0.01 0.01 0.01 0.01 0.01 0.01 0.01 0.01 0.00 0.00 0.00 0.00 0.01 0.01 0.00 0.00 0.00 0.00 0.01 0.01 0.02 0.03 0.04 0.04 0.05 0.05 0.10 0.12 0.17 0.24 0.27 0.29
0.00 0.00 0.00 0.00 0.00 0.00 0.00 0.01 0.01 0.01 0.01 0.01 0.01 0.01 0.01 0.01 0.01 0.01 0.01 0.01 0.01 0.01 0.01 0.01 0.01 0.01 0.01 0.01 0.00 0.01 0.03 0.05 0.03 0.02 0.01 0.01 0.01 0.01 0.03 0.03 0.05 0.09 0.10
0.00 0.00 0.00 0.00 0.00 0.00 0.00 0.00 0.00 0.01 0.01 0.01 0.01 0.01 0.01 0.01 0.01 0.01 0.01 0.02 0.01 0.01 0.01 0.01 0.01 0.01 0.01 0.01 0.02 0.04 0.04 0.02 0.01 0.01 0.01 0.00 0.00 0.00 0.01 0.01 0.02 0.03 0.04